Baltimore, MD

10:34 PM EDT on October 20, 2017 (GMT -0400)
Baltimore-Washington International

Weather History for KBWI - March, 2014

Change the Weather History Date:

Saturday, March 1, 2014

  Actual Average Record
Temperature  
Mean Temperature 29 °F 39 °F  
Max Temperature 44 °F 49 °F 80 °F (1972)
Min Temperature 14 °F 29 °F 11 °F (1980)
Degree Days  
Heating Degree Days 36 26  
Month to date heating degree days 36 26  
Since 1 July heating degree days 3793 3621  
Cooling Degree Days 0 0  
Month to date cooling degree days 0 0  
Year to date cooling degree days 0 0  
Moisture  
Dew Point 11 °F    
Average Humidity 50    
Maximum Humidity 73    
Minimum Humidity 27    
Precipitation  
Precipitation 0.00 in 0.11 in 1.17 in (1954)
Month to date precipitation 0.00 0.11  
Year to date precipitation 7.29 6.06  
Snow  
Snow 0.00 in 0.10 in 6.00 in (1952)
Month to date snowfall 0.0 0.1  
Since 1 July snowfall 26.9 18.3  
Snow Depth 0.00 in    
Sea Level Pressure  
Sea Level Pressure 30.30 in    
Wind  
Wind Speed 2 mph (East)    
Max Wind Speed 10 mph    
Max Gust Speed 17 mph    
Visibility 10 miles    
Events      
T = Trace of Precipitation, MM = Missing Value Source: NWS Daily Summary

Daily Weather History Graph

Daily Weather History Graph

Search for Another Location

Airport or City:

Trip Planner

Search our weather history database for the weather conditions in past years. The results will help you decide how hot, cold, wet, or windy it might be!

Date:

Astronomy

Mar. 01, 2014 Rise Set
Actual Time 6:39 AM EST 5:59 PM EST
Civil Twilight 6:12 AM EST 6:26 PM EST
Nautical Twilight 5:41 AM EST 6:57 PM EST
Astronomical Twilight 5:10 AM EST 7:28 PM EST
Moon 6:32 AM EST (3/1) 6:43 PM EST (3/1)
Length of Visible Light 12h 13m
Length of Day
11h 19m
New Moon, 0% of the Moon is Illuminated
Mar 1
New Moon
Mar 8
First Quarter
Mar 16
Full
Mar 23
Last Quarter
Mar 30
New

Hourly Weather History & Observations

Time (EST) Temp. Windchill Dew Point Humidity Pressure Visibility Wind Dir Wind Speed Gust Speed Precip Events Conditions
12:54 AM 17.1 °F - 5.0 °F 59% 30.40 in 10.0 mi Calm Calm - N/A   Clear
1:54 AM 19.0 °F - 5.0 °F 54% 30.39 in 10.0 mi Calm Calm - N/A   Clear
2:54 AM 17.1 °F - 6.1 °F 62% 30.38 in 10.0 mi Calm Calm - N/A   Clear
3:54 AM 15.1 °F - 7.0 °F 70% 30.38 in 10.0 mi Calm Calm - N/A   Partly Cloudy
4:54 AM 16.0 °F - 7.0 °F 68% 30.37 in 10.0 mi Calm Calm - N/A   Scattered Clouds
5:54 AM 15.1 °F - 8.1 °F 74% 30.37 in 10.0 mi Calm Calm - N/A   Mostly Cloudy
6:54 AM 15.1 °F - 9.0 °F 77% 30.38 in 10.0 mi Calm Calm - N/A   Scattered Clouds
7:54 AM 21.9 °F - 12.0 °F 66% 30.40 in 10.0 mi Calm Calm - N/A   Scattered Clouds
8:54 AM 26.1 °F - 10.9 °F 53% 30.39 in 10.0 mi Calm Calm - N/A   Mostly Cloudy
9:54 AM 28.9 °F 23.9 °F 8.1 °F 41% 30.38 in 10.0 mi SSW 4.6 mph - N/A   Mostly Cloudy
10:54 AM 33.1 °F 28.7 °F 8.1 °F 35% 30.37 in 10.0 mi Variable 4.6 mph - N/A   Scattered Clouds
11:54 AM 36.0 °F 32.1 °F 7.0 °F 30% 30.34 in 10.0 mi Variable 4.6 mph - N/A   Mostly Cloudy
12:54 PM 37.9 °F - 7.0 °F 28% 30.29 in 10.0 mi Calm Calm - N/A   Scattered Clouds
1:54 PM 39.9 °F 34.5 °F 8.1 °F 27% 30.24 in 10.0 mi SW 8.1 mph - N/A   Mostly Cloudy
2:54 PM 43.0 °F 40.3 °F 10.9 °F 27% 30.24 in 10.0 mi SSE 4.6 mph - N/A   Mostly Cloudy
3:54 PM 37.9 °F 32.1 °F 15.1 °F 39% 30.22 in 10.0 mi ENE 8.1 mph - N/A   Overcast
4:54 PM 36.0 °F 29.6 °F 17.1 °F 46% 30.22 in 10.0 mi NNE 8.1 mph - N/A   Overcast
5:54 PM 36.0 °F 31.1 °F 18.0 °F 48% 30.22 in 10.0 mi ENE 5.8 mph - N/A   Mostly Cloudy
6:54 PM 35.1 °F - 15.1 °F 44% 30.22 in 10.0 mi Calm Calm - N/A   Mostly Cloudy
7:54 PM 35.1 °F 32.2 °F 17.1 °F 48% 30.25 in 10.0 mi NNW 3.5 mph - N/A   Overcast
8:54 PM 34.0 °F - 18.0 °F 52% 30.21 in 10.0 mi Calm Calm - N/A   Mostly Cloudy
9:54 PM 34.0 °F - 16.0 °F 48% 30.19 in 10.0 mi Calm Calm - N/A   Mostly Cloudy
10:54 PM 32.0 °F - 18.0 °F 56% 30.19 in 10.0 mi Calm Calm - N/A   Mostly Cloudy
11:54 PM 32.0 °F - 19.0 °F 59% 30.18 in 10.0 mi Calm Calm - N/A   Overcast